リニア彗星

C/2012 L3 ( LINEAR )

English version
Home page
Updated on June 9, 2013

---------------------------------------------------------------------

・ プロフィール

発見日 2012年6月10日
発見光度 18.5等
発見者 Lincoln Laboratory Near-Earth Asteroid Research project

・ 写真集

・ 軌道要素

Epoch 2012 June 2.0 TT = JDT 2456080.5
T 2012 June 12.21632 TT                                 MPC
q   3.0450239            (2000.0)            P               Q
z  +0.0030541      Peri.  107.09264     +0.36069486     -0.73337057
 +/-0.0000069      Node    53.48996     -0.85306295     -0.50918893
e   0.9907003      Incl.  134.19656     +0.37707137     -0.45043783
From 230 observations 2012 June 10-2013 May 8, mean residual 0".5.

・ 光度変化

        m1 = 11.0 + 5 logΔ + 10.0 log r

---------------------------------------------------------------------

軌道要素はM.P.E.C. 2013-K38に掲載されたものです。
光度グラフはComet for Windowsで作成したものです。

---------------------------------------------------------------------

Copyright(C) Seiichi Yoshida (comet@aerith.net). All rights reserved.